Location: Carabito
(9.8355°N, 67.9249°W)
Time: 12:11:28
(UTC+00:00)

Feng Yun 1-1 Rocket - Pass Details

Date: 23 May 2024
Orbit: 829 x 933 km, 99.1° (Epoch: 24 June)

Event Time Altitude Azimuth Distance (km) Brightness Sun altitude
Exits shadow 00:30:39 51° 92° (E) 1,138 4.5 -24.1°
Maximum altitude 00:31:06 53° 76° (ENE) 1,123 4.5 -24.2°
Drops below altitude 10° 00:36:48 10° 1° (N) 2,628 7.1 -25.4°
Sets 00:39:17 0° 356° (N) 3,575 7.9 -26.0°
